St. George, UT

11:40 PM MDT on July 24, 2017 (GMT -0600)
Saint George Municipal

Weather History for KSGU - April, 2014

Change the Weather History Date:

Wednesday, April 30, 2014

  Actual Average Record
Temperature  
Mean Temperature 63 °F -  
Max Temperature 73 °F 81 °F 95 °F (1981)
Min Temperature 53 °F 49 °F 32 °F (1942)
Degree Days  
Heating Degree Days 2    
Growing Degree Days 13 (Base 50)    
Moisture  
Dew Point 16 °F    
Average Humidity 16    
Maximum Humidity 24    
Minimum Humidity 11    
Precipitation  
Precipitation 0.00 in - - ()
Sea Level Pressure  
Sea Level Pressure 30.27 in    
Wind  
Wind Speed 21 mph (NNE)    
Max Wind Speed 30 mph    
Max Gust Speed 41 mph    
Visibility 10 miles    
Events      
Averages and records for this station are not official NWS values.
T = Trace of Precipitation, MM = Missing Value Source: NWS Daily Summary

Daily Weather History Graph

Daily Weather History Graph

Search for Another Location

Airport or City:

Trip Planner

Search our weather history database for the weather conditions in past years. The results will help you decide how hot, cold, wet, or windy it might be!

Date:

Astronomy

Apr. 30, 2014 Rise Set
Actual Time 6:40 AM MDT 8:22 PM MDT
Civil Twilight 6:12 AM MDT 8:50 PM MDT
Nautical Twilight 5:39 AM MDT 9:23 PM MDT
Astronomical Twilight 5:03 AM MDT 9:59 PM MDT
Moon 7:45 AM MDT (4/30) 10:03 PM MDT (4/30)
Length of Visible Light 14h 37m
Length of Day
13h 41m
Waxing Crescent, 3% of the Moon is Illuminated
Apr 30
Waxing Crescent
May 6
First Quarter
May 14
Full
May 21
Last Quarter
May 28
New

Hourly Weather History & Observations

Time (MDT) Temp. Dew Point Humidity Pressure Visibility Wind Dir Wind Speed Gust Speed Precip Events Conditions
12:15 AM 57.2 °F 10.4 °F 16% 30.34 in 10.0 mi NNE 23.0 mph 28.8 mph N/A   Clear
12:35 AM 57.2 °F 12.2 °F 17% 30.34 in 10.0 mi NNE 19.6 mph 27.6 mph N/A   Clear
12:55 AM 57.2 °F 14.0 °F 18% 30.33 in 10.0 mi NNE 24.2 mph 31.1 mph N/A   Clear
1:15 AM 57.2 °F 15.8 °F 20% 30.33 in 10.0 mi NNE 28.8 mph 34.5 mph N/A   Clear
1:35 AM 57.2 °F 15.8 °F 20% 30.33 in 10.0 mi NNE 25.3 mph 32.2 mph N/A   Clear
1:55 AM 55.4 °F 15.8 °F 21% 30.32 in 10.0 mi NE 23.0 mph - N/A   Clear
2:15 AM 55.4 °F 15.8 °F 21% 30.32 in 10.0 mi NE 24.2 mph 33.4 mph N/A   Clear
2:35 AM 55.4 °F 15.8 °F 21% 30.32 in 10.0 mi NE 29.9 mph 35.7 mph N/A   Clear
2:55 AM 55.4 °F 15.8 °F 21% 30.32 in 10.0 mi NE 28.8 mph 39.1 mph N/A   Clear
3:15 AM 55.4 °F 15.8 °F 21% 30.32 in 10.0 mi NE 23.0 mph 35.7 mph N/A   Clear
3:35 AM 55.4 °F 15.8 °F 21% 30.33 in 10.0 mi NE 26.5 mph 33.4 mph N/A   Clear
3:55 AM 55.4 °F 15.8 °F 21% 30.32 in 10.0 mi NE 29.9 mph 41.4 mph N/A   Clear
4:15 AM 55.4 °F 15.8 °F 21% 30.33 in 10.0 mi NE 27.6 mph 38.0 mph N/A   Clear
4:35 AM 55.4 °F 15.8 °F 21% 30.32 in 10.0 mi NE 26.5 mph 31.1 mph N/A   Clear
5:15 AM 53.6 °F 15.8 °F 22% 30.32 in 10.0 mi NE 24.2 mph 29.9 mph N/A   Clear
5:35 AM 55.4 °F 15.8 °F 21% 30.32 in 10.0 mi NE 27.6 mph 33.4 mph N/A   Clear
5:55 AM 55.4 °F 15.8 °F 21% 30.32 in 10.0 mi NE 23.0 mph 29.9 mph N/A   Clear
6:15 AM 55.4 °F 15.8 °F 21% 30.33 in 10.0 mi NE 18.4 mph - N/A   Clear
6:35 AM 55.4 °F 15.8 °F 21% 30.34 in 10.0 mi NNE 13.8 mph 20.7 mph N/A   Clear
6:55 AM 53.6 °F 15.8 °F 22% 30.35 in 10.0 mi NNE 12.7 mph 17.3 mph N/A   Clear
7:15 AM 53.6 °F 15.8 °F 22% 30.36 in 10.0 mi SW 5.8 mph - N/A   Clear
7:35 AM 53.6 °F 15.8 °F 22% 30.36 in 10.0 mi West 8.1 mph - N/A   Clear
7:55 AM 53.6 °F 15.8 °F 22% 30.36 in 10.0 mi WSW 6.9 mph - N/A   Clear
8:15 AM 53.6 °F 17.6 °F 24% 30.37 in 10.0 mi SSW 5.8 mph - N/A   Clear
8:35 AM 55.4 °F 17.6 °F 23% 30.36 in 10.0 mi WSW 8.1 mph - N/A   Clear
9:15 AM 59.0 °F 17.6 °F 20% 30.37 in 10.0 mi NE 16.1 mph 23.0 mph N/A   Clear
9:35 AM 60.8 °F 17.6 °F 19% 30.36 in 10.0 mi NE 19.6 mph - N/A   Clear
9:55 AM 62.6 °F 17.6 °F 18% 30.36 in 10.0 mi NE 20.7 mph 26.5 mph N/A   Clear
10:15 AM 62.6 °F 19.4 °F 19% 30.35 in 10.0 mi NE 26.5 mph 29.9 mph N/A   Clear
10:35 AM 64.4 °F 17.6 °F 16% 30.35 in 10.0 mi North 17.3 mph 27.6 mph N/A   Clear
10:55 AM 64.4 °F 17.6 °F 16% 30.35 in 10.0 mi NE 21.9 mph 28.8 mph N/A   Clear
11:15 AM 64.4 °F 17.6 °F 16% 30.33 in 10.0 mi North 11.5 mph 24.2 mph N/A   Clear
11:35 AM 66.2 °F 17.6 °F 15% 30.34 in 10.0 mi NNE 18.4 mph 23.0 mph N/A   Clear
11:55 AM 66.2 °F 17.6 °F 15% 30.33 in 10.0 mi NE 17.3 mph 26.5 mph N/A   Clear
12:15 PM 68.0 °F 17.6 °F 15% 30.32 in 10.0 mi NNE 19.6 mph 26.5 mph N/A   Clear
12:35 PM 68.0 °F 17.6 °F 15% 30.31 in 10.0 mi NNE 17.3 mph 25.3 mph N/A   Clear
12:55 PM 68.0 °F 17.6 °F 15% 30.29 in 10.0 mi NE 9.2 mph 27.6 mph N/A   Clear
1:15 PM 69.8 °F 17.6 °F 14% 30.27 in 10.0 mi NNE 10.4 mph 23.0 mph N/A   Clear
1:35 PM 69.8 °F 17.6 °F 14% 30.26 in 10.0 mi NNE 18.4 mph 23.0 mph N/A   Clear
1:55 PM 71.6 °F 19.4 °F 14% 30.25 in 10.0 mi ENE 15.0 mph 25.3 mph N/A   Clear
2:15 PM 71.6 °F 19.4 °F 14% 30.24 in 10.0 mi NE 20.7 mph 24.2 mph N/A   Clear
2:35 PM 73.4 °F 19.4 °F 13% 30.23 in 10.0 mi NE 19.6 mph 27.6 mph N/A   Clear
2:55 PM 73.4 °F 19.4 °F 13% 30.22 in 10.0 mi NNE 23.0 mph 28.8 mph N/A   Clear
3:15 PM 73.4 °F 19.4 °F 13% 30.21 in 10.0 mi NE 19.6 mph 23.0 mph N/A   Clear
3:35 PM 73.4 °F 19.4 °F 13% 30.20 in 10.0 mi NNE 28.8 mph 33.4 mph N/A   Clear
3:55 PM 73.4 °F 19.4 °F 13% 30.20 in 10.0 mi NNE 23.0 mph 31.1 mph N/A   Clear
4:15 PM 73.4 °F 17.6 °F 12% 30.18 in 10.0 mi NNE 16.1 mph 23.0 mph N/A   Clear
4:35 PM 73.4 °F 19.4 °F 13% 30.18 in 10.0 mi NNE 23.0 mph 33.4 mph N/A   Clear
4:55 PM 73.4 °F 17.6 °F 12% 30.17 in 10.0 mi NE 20.7 mph 32.2 mph N/A   Clear
5:15 PM 73.4 °F 17.6 °F 12% 30.16 in 10.0 mi NNE 24.2 mph 34.5 mph N/A   Clear
5:35 PM 73.4 °F 17.6 °F 12% 30.16 in 10.0 mi NE 25.3 mph 32.2 mph N/A   Clear
5:55 PM 73.4 °F 15.8 °F 11% 30.16 in 10.0 mi NE 26.5 mph 32.2 mph N/A   Clear
6:15 PM 73.4 °F 15.8 °F 11% 30.17 in 10.0 mi NNE 24.2 mph 36.8 mph N/A   Clear
6:35 PM 71.6 °F 15.8 °F 12% 30.17 in 10.0 mi NNE 25.3 mph 33.4 mph N/A   Clear
7:15 PM 71.6 °F 15.8 °F 12% 30.15 in 10.0 mi North 19.6 mph 35.7 mph N/A   Clear
7:35 PM 69.8 °F 15.8 °F 13% 30.16 in 10.0 mi NNE 27.6 mph 34.5 mph N/A   Clear
7:55 PM 69.8 °F 14.0 °F 12% 30.16 in 10.0 mi North 17.3 mph 24.2 mph N/A   Clear
8:15 PM 68.0 °F 14.0 °F 12% 30.17 in 10.0 mi NNE 17.3 mph 25.3 mph N/A   Clear
8:35 PM 68.0 °F 12.2 °F 12% 30.18 in 10.0 mi NNE 15.0 mph 27.6 mph N/A   Clear
8:55 PM 66.2 °F 12.2 °F 12% 30.19 in 10.0 mi North 19.6 mph 31.1 mph N/A   Clear
9:15 PM 66.2 °F 10.4 °F 11% 30.20 in 10.0 mi NNE 16.1 mph 19.6 mph N/A   Clear
9:35 PM 66.2 °F 10.4 °F 11% 30.21 in 10.0 mi NNE 18.4 mph 24.2 mph N/A   Clear
9:55 PM 64.4 °F 10.4 °F 12% 30.22 in 10.0 mi NNE 13.8 mph - N/A   Clear
10:15 PM 62.6 °F 10.4 °F 13% 30.23 in 10.0 mi NE 9.2 mph - N/A   Clear
10:35 PM 62.6 °F 12.2 °F 14% 30.24 in 10.0 mi NE 10.4 mph - N/A   Clear
10:55 PM 62.6 °F 12.2 °F 14% 30.24 in 10.0 mi NNE 11.5 mph - N/A   Clear
11:15 PM 62.6 °F 15.8 °F 16% 30.25 in 10.0 mi NNE 16.1 mph - N/A   Clear
11:35 PM 62.6 °F 15.8 °F 16% 30.25 in 10.0 mi NNE 17.3 mph 23.0 mph N/A   Clear
11:55 PM 62.6 °F 15.8 °F 16% 30.25 in 10.0 mi NNE 17.3 mph - N/A   Clear